This is the latest recevied weather packets stored in our database for station/object KB7KFC-3. If no packets are shown the sender has not sent any weather packets the latest 10 day(s).
| Time | Temp. | Humidity | Pressure | Rain* | Wind** | Luminosity | Snow |
|---|---|---|---|---|---|---|---|
| 1778014686 | 25.56° C | 25% | 1011.5 hPa | 0 mm | - | - | - |
| 1778014506 | 26.11° C | 25% | 1011.5 hPa | 0 mm | - | - | - |
| 1778014325 | 25.56° C | 27% | 1011.5 hPa | 0 mm | - | - | - |
| 1778014146 | 25° C | 25% | 1011.5 hPa | 0 mm | - | - | - |
| 1778013964 | 26.11° C | 24% | 1011.6 hPa | 0 mm | - | - | - |
| 1778013786 | 26.11° C | 26% | 1011.6 hPa | 0 mm | - | - | - |
| 1778013606 | 25.56° C | 27% | 1011.5 hPa | 0 mm | - | - | - |
| 1778013425 | 25.56° C | 25% | 1011.5 hPa | 0 mm | - | - | - |
| 1778013245 | 25° C | 26% | 1011.5 hPa | 0 mm | - | - | - |
| 1778013065 | 25.56° C | 27% | 1011.6 hPa | 0 mm | - | - | - |
| 1778012884 | 26.11° C | 26% | 1011.6 hPa | 0 mm | - | - | - |
| 1778012704 | 25.56° C | 27% | 1011.7 hPa | 0 mm | - | - | - |
| 1778012524 | 25.56° C | 27% | 1011.7 hPa | 0 mm | - | - | - |
| 1778012344 | 25.56° C | 27% | 1011.7 hPa | 0 mm | - | - | - |
| 1778012165 | 25.56° C | 27% | 1011.7 hPa | 0 mm | - | - | - |
| 1778011985 | 25.56° C | 27% | 1011.7 hPa | 0 mm | - | - | - |
| 1778011805 | 25° C | 28% | 1011.7 hPa | 0 mm | - | - | - |
| 1778011624 | 25° C | 29% | 1011.7 hPa | 0 mm | - | - | - |
| 1778011444 | 24.44° C | 30% | 1011.7 hPa | 0 mm | - | - | - |
| 1778011265 | 25° C | 28% | 1011.8 hPa | 0 mm | - | - | - |
| 1778011086 | 25° C | 29% | 1011.8 hPa | 0 mm | - | - | - |
| 1778010906 | 25° C | 29% | 1011.8 hPa | 0 mm | - | - | - |
| 1778010726 | 25° C | 30% | 1011.8 hPa | 0 mm | - | - | - |
| 1778010544 | 25° C | 30% | 1011.9 hPa | 0 mm | - | - | - |
| 1778010365 | 24.44° C | 33% | 1012 hPa | 0 mm | - | - | - |
* Rain latest hour (hover to see other rain measurements)
** Current wind speed in m/s (hover to see current wind gust speed)